Regional Weather Roundup
Issued by NWS

Home | Current Version | Previous Version | Text Only | Print | Product List | Glossary On
Versions: 1 2 3 4 5 6 7 8 9 10 11 12 13 14 15 16 17 18 19 20 21 22 23 24 25 26 27 28 29 30 31 32 33 34 35 36 37 38 39 40 41 42 43 44 45 46 47 48 49 50
000
ASUS43 KMKX 261521
RWRWI

WISCONSIN REGIONAL WEATHER ROUNDUP
NATIONAL WEATHER SERVICE MILWAUKEE/SULLIVAN WI
1000 AM CDT WED JUL 26 2017

NOTE: "FAIR" INDICATES FEW OR NO CLOUDS BELOW 12,000 FEET WITH NO
SIGNIFICANT WEATHER AND/OR OBSTRUCTIONS TO VISIBILITY.

WIZ001-002-006>008-014>016-023>028-261600-
NORTHWEST WISCONSIN

CITY           SKY/WX    TMP DP  RH WIND       PRES   REMARKS
SUPERIOR ARPT  NOT AVBL
ASHLAND        CLOUDY    75  64  68 W8        29.98F
HAYWARD        PTSUNNY   72  66  81 VRB3      30.00S
SIREN          CLOUDY    70  68  92 W5        30.03R
CUMBERLAND     CLOUDY    70  68  94 CALM      30.01S
RICE LAKE      CLOUDY    70  68  94 W3        30.02S
CHETEK         DRIZZLE   70  70  99 CALM      30.00F
LADYSMITH      CLOUDY    70  68  92 SW5       30.02R
EAU CLAIRE     LGT RAIN  71  69  93 CALM      29.98S
MENOMONIE      RAIN      70  70  99 CALM      29.99S
NEW RICHMOND   CLOUDY    71  70  98 NW5       30.01F
OSCEOLA        CLOUDY    73  73 100 NW3       30.04R
$$

WIZ003>005-009-010-017-018-261600-
NORTH CENTRAL WISCONSIN

CITY           SKY/WX    TMP DP  RH WIND       PRES   REMARKS
MANITOWISH WTR CLOUDY    70  70 100 W5        29.99F
ARBOR VITAE    CLOUDY    72  70  95 CALM      29.99F
WOODRUFF       CLOUDY    72  70  95 CALM      29.99F
RHINELANDER    LGT RAIN  69  69 100 VRB3      30.00F FOG
EAGLE RIVER    LGT RAIN  69  69 100 W7        30.00F
LAND O LAKES   CLOUDY    71  68  91 SW5       30.00F
PHILLIPS       CLOUDY    68  68 100 CALM      30.00S
TOMAHAWK       RAIN      69  67  94 W6        30.02R
MEDFORD        LGT RAIN  69  68  96 NW5       30.00F
MERRILL        NOT AVBL
$$

WIZ029-030-035-036-043>047-261600-
CENTRAL WISCONSIN

CITY           SKY/WX    TMP DP  RH WIND       PRES   REMARKS
WAUSAU         CLOUDY    68  67  96 SW8       29.99S
MOSINEE        LGT RAIN  68  68 100 S6        30.01F
MARSHFIELD     CLOUDY    70  67  90 S5        30.00F
STEVENS POINT  CLOUDY    67  67 100 SW6       30.01F
WAUPACA        CLOUDY    70  69  96 S3        30.02F
WAUTOMA        CLOUDY    72  66  83 S6        30.03S
WISC RAPIDS    CLOUDY    72  69  90 S6        30.02F
CAMP DOUGLAS   CLOUDY    75  70  83 S7        30.01F
$$

WIZ011>013-019>022-031-037>040-048>050-261600-
NORTHEAST WISCONSIN

CITY           SKY/WX    TMP DP  RH WIND       PRES   REMARKS
ANTIGO         LGT RAIN  68  67  98 CALM      30.00F
SHAWANO        LGT RAIN  69  66  92 CALM      29.97F
OCONTO         CLOUDY    67  66  97 W10       30.03R
STURGEON BAY   LGT RAIN  70  66  87 W13       30.03R
GREEN BAY      TSTM      67  67 100 E6        30.00F FOG
MANITOWOC      TSTM      72  64  78 W17G26    30.05R
APPLETON       CLOUDY    66  66 100 SW8       30.01F
CLINTONVILLE   LGT RAIN N/A N/A N/A SW5       29.99F
OSHKOSH        CLOUDY    69  66  90 SW7       30.03F
$$

WIZ032>034-041-042-053>061-261600-
SOUTHWEST WISCONSIN

CITY           SKY/WX    TMP DP  RH WIND       PRES   REMARKS
LA CROSSE      CLOUDY    78  71  79 S9        30.00F HX  80
SPARTA         CLOUDY    75  68  80 S6        30.02F
VIROQUA        CLOUDY    73  71  95 CALM      30.05F
BOSCOBEL       CLOUDY    78  70  76 W3        30.04F HX  80
PRAIRIE DU CHI CLOUDY    74  68  79 CALM      30.03R
PLATTEVILLE    CLOUDY    74  73  96 S6        30.05S
$$

WIZ056-057-062-063-064-067-068-261600-
SOUTH CENTRAL WISCONSIN

CITY           SKY/WX    TMP DP  RH WIND       PRES   REMARKS
REEDSBURG      CLOUDY    73  71  93 SW7       30.04F
BARABOO/DELLS  CLOUDY    74  66  77 W7        30.05F
LONE ROCK      CLOUDY    74  70  87 NW8       30.05R
MINERAL POINT  CLOUDY    77  73  88 S9        30.05F
MADISON        CLOUDY    74  67  78 SW8       30.04S
MIDDLETON      CLOUDY    76  69  79 SW6       30.05S
WATERTOWN      CLOUDY    74  69  87 SW8       30.04F
MONROE         MOSUNNY   73  68  83 S12G17    30.05F
JANESVILLE     PTSUNNY   77  68  73 S12G17    30.05F
$$

WIZ051-052-058>065-066-070>072-261600-
SOUTHEAST WISCONSIN

CITY           SKY/WX    TMP DP  RH WIND       PRES   REMARKS
MILWAUKEE      CLOUDY    76  66  71 SW15      30.05S
WAUKESHA       SUNNY     73  64  73 SW8       30.06F
MILWAUKEE/TIMM SUNNY     73  63  68 SW8       30.05F
RACINE         CLOUDY    77  68  73 SW9       30.07F
KENOSHA        CLOUDY    77  67  71 SW10      30.07S
FOND DU LAC    CLOUDY    71  64  78 VRB3      30.05R
SHEBOYGAN      CLOUDY    72  67  84 SW8       30.02F
WEST BEND      CLOUDY    72  66  83 SW8       30.04S
JUNEAU         CLOUDY    71  65  83 SW9       30.07R
$$

LSZ147-162-261600-
LAKE SUPERIOR

STATION/POSITION TIME  TEMP    WIND        PRES    WAVE
                       AIR SEA DIR/SP/G            HT/PER
                 (UTC) (F)     (DEG/KT/KT) (MB)    (FT/S)
W MID LAKE BUOY  1450   55 51  250/  6/  8 1014.1R   1
DEVILS ISLAND    1500   65     220/  7/  9 1014.5S
PORT WING        1320   70     260/  8/ 11 1014.9S
SAXON HARBOR     1440   70     340/  7/  9 1014.6R
$$

LMZ867-665-643>646-261600-
LAKE MICHIGAN

STATION/POSITION TIME  TEMP    WIND        PRES    WAVE
                       AIR SEA DIR/SP/G            HT/PER
                 (UTC) (F)     (DEG/KT/KT) (MB)    (FT/S)
CHAMBERS ISLAND  1440   69     200/  6/ 12 1015.2R
S GREEN BAY BUOY 1500   68 71  240/ 21/ 29 1017.0
N MID LAKE BUOY  1450   67 65  210/ 16/ 17 1015.5S   5/ 6
NORTHPORT PIER   1440   70     230/  6/ 11 1014.9S
KEWAUNEE LAKESHO 1454   71     270/  6/ 11 1016.0R
SHEBOYGAN LAKESH 1500   71     210/  8/  9 1016.2S
PORT WASHINGTON  1430   74     190/  5/  7 1017.9S
ATWATER BUOY     1409   72 68  200/  8/ 12 1017.5F
MILWAUKEE LAKESH 1500   75     230/ 15/ 18   N/A
S MID LAKE BUOY  1450   71 70  200/ 12/ 14 1018.3F   3/ 5
KENOSHA   LAKESH 1500   77     200/  9/ 12 1017.6
$$

TC  - TEMPERATURE IN CELSIUS
VSB - VISIBILITY IN STATUTE MILES
WCI - WIND CHILL INDEX
HX  - HEAT INDEX





USA.gov is the U.S. government's official web portal to all federal, state and local government web resources and services.